Change the Weather History Date:

Monday, April 22, 2013

  Actual Average Record
Temperature  
Mean Temperature 76 °F 77 °F  
Max Temperature 81 °F 83 °F 95 °F (1935)
Min Temperature 70 °F 71 °F 50 °F (1940)
Degree Days  
Heating Degree Days 0 0  
Month to date heating degree days 0 0  
Since 1 July heating degree days 85 111  
Cooling Degree Days 11 12  
Month to date cooling degree days 280 237  
Year to date cooling degree days 869 847  
Growing Degree Days 26 (Base 50)    
Moisture  
Dew Point 70 °F    
Average Humidity 83    
Maximum Humidity 97    
Minimum Humidity 69    
Precipitation  
Precipitation 0.36 in 0.10 in 3.66 in (1994)
Month to date precipitation 5.51 2.28  
Year to date precipitation 8.72 12.23  
Snow  
Snow 0.00 in - - ()
Month to date snowfall 0.0  
Since 1 July snowfall 0.0  
Snow Depth 0.00 in    
Sea Level Pressure  
Sea Level Pressure 30.00 in    
Wind  
Wind Speed 7 mph (ENE)    
Max Wind Speed 18 mph    
Max Gust Speed 22 mph    
Visibility 9 miles    
Events Rain , Thunderstorm    
T = Trace of Precipitation, MM = Missing Value Source: NWS Daily Summary

Daily Weather History Graph

Daily Weather History Graph

Search for Another Location

Airport or City:

Trip Planner

Search our weather history database for the weather conditions in past years. The results will help you decide how hot, cold, wet, or windy it might be!

Date:

Astronomy

Apr. 22, 2013 Rise Set
Actual Time 6:50 AM EDT 7:47 PM EDT
Civil Twilight 6:26 AM EDT 8:11 PM EDT
Nautical Twilight 5:58 AM EDT 8:39 PM EDT
Astronomical Twilight 5:29 AM EDT 9:08 PM EDT
Moon 4:51 PM EDT (4/22) 4:24 AM EDT (4/22)
Length of Visible Light 13h 44m
Length of Day
12h 57m
Waxing Gibbous, 87% of the Moon is Illuminated
Apr 22
Waxing Gibbous
Apr 25
Full
May 2
Last Quarter
May 9
New
May 18
First Quarter

Hourly Weather History & Observations

Time (EDT) Temp. Heat Index Dew Point Humidity Pressure Visibility Wind Dir Wind Speed Gust Speed Precip Events Conditions
12:07 AM 77.0 °F - 71.6 °F 83% 30.05 in 10.0 mi Calm Calm - N/A   Mostly Cloudy
12:53 AM 75.9 °F - 73.0 °F 91% 30.04 in 10.0 mi NNW 6.9 mph - N/A   Mostly Cloudy
1:53 AM 73.9 °F - 71.1 °F 91% 30.03 in 10.0 mi NW 5.8 mph - N/A   Scattered Clouds
2:53 AM 73.0 °F - 70.0 °F 90% 30.00 in 10.0 mi WNW 4.6 mph - N/A   Partly Cloudy
3:53 AM 73.0 °F - 70.0 °F 90% 29.99 in 10.0 mi NW 5.8 mph - N/A   Partly Cloudy
4:53 AM 73.0 °F - 71.1 °F 93% 29.99 in 10.0 mi Calm Calm - N/A   Mostly Cloudy
5:03 AM 73.4 °F - 71.6 °F 94% 29.99 in 10.0 mi Calm Calm - N/A   Mostly Cloudy
5:45 AM 73.4 °F - 71.6 °F 94% 30.00 in 10.0 mi Calm Calm - N/A   Overcast
5:53 AM 73.9 °F - 71.1 °F 91% 30.00 in 10.0 mi Calm Calm - N/A   Mostly Cloudy
6:50 AM 73.4 °F - 71.6 °F 94% 30.00 in 9.0 mi NE 4.6 mph - N/A   Mostly Cloudy
6:53 AM 73.9 °F - 71.1 °F 91% 30.00 in 9.0 mi NE 8.1 mph - N/A   Mostly Cloudy
6:55 AM 73.4 °F - 71.6 °F 94% 30.00 in 9.0 mi ENE 8.1 mph - 0.00 in Rain Light Rain
7:16 AM 71.6 °F - 68.0 °F 88% 30.02 in 9.0 mi SE 12.7 mph 20.7 mph 0.00 in Rain Light Rain
7:23 AM 71.6 °F - 69.8 °F 94% 30.02 in 9.0 mi SE 10.4 mph - 0.00 in Rain Light Rain
7:42 AM 71.6 °F - 69.8 °F 94% 30.02 in 9.0 mi ESE 10.4 mph - 0.00 in Rain Light Rain
7:53 AM 72.0 °F - 69.1 °F 91% 30.02 in 9.0 mi ESE 11.5 mph - 0.00 in Rain Light Rain
8:40 AM 73.4 °F - 69.8 °F 88% 30.03 in 7.0 mi ESE 16.1 mph - 0.01 in Rain Light Rain
8:50 AM 73.4 °F - 69.8 °F 88% 30.03 in 8.0 mi East 13.8 mph - 0.01 in Rain Light Rain
8:53 AM 73.0 °F - 70.0 °F 90% 30.03 in 10.0 mi East 13.8 mph - 0.01 in Rain Light Rain
9:53 AM 75.0 °F - 70.0 °F 84% 30.04 in 10.0 mi ESE 10.4 mph - 0.00 in   Mostly Cloudy
10:53 AM 75.9 °F - 69.1 °F 79% 30.06 in 10.0 mi ESE 8.1 mph - N/A   Overcast
11:53 AM 77.0 °F - 70.0 °F 79% 30.04 in 10.0 mi SE 6.9 mph - N/A   Scattered Clouds
12:53 PM 80.1 °F 83.2 °F 70.0 °F 71% 30.01 in 10.0 mi South 6.9 mph - N/A   Scattered Clouds
1:53 PM 81.0 °F 84.4 °F 70.0 °F 69% 29.99 in 10.0 mi SE 8.1 mph 16.1 mph N/A   Mostly Cloudy
2:53 PM 79.0 °F - 69.1 °F 72% 29.97 in 10.0 mi SE 8.1 mph - N/A   Mostly Cloudy
3:53 PM 80.1 °F 82.9 °F 69.1 °F 69% 29.94 in 10.0 mi South 3.5 mph - N/A   Mostly Cloudy
4:53 PM 78.1 °F - 69.1 °F 74% 29.93 in 10.0 mi SSE 6.9 mph - N/A   Mostly Cloudy
5:29 PM 78.8 °F - 69.8 °F 74% 29.93 in 10.0 mi ESE 6.9 mph - N/A Thunderstorm Thunderstorm
5:53 PM 77.0 °F - 70.0 °F 79% 29.96 in 7.0 mi Calm Calm - 0.01 in Rain , Thunderstorm Light Thunderstorms and Rain
6:45 PM 71.6 °F - 69.8 °F 94% 29.97 in 10.0 mi NNW 17.3 mph - 0.12 in Rain Light Rain
6:53 PM 71.1 °F - 69.1 °F 93% 29.98 in 6.0 mi NNW 13.8 mph - 0.15 in Rain Rain
6:59 PM 71.6 °F - 69.8 °F 94% 29.98 in 6.0 mi NNW 10.4 mph - 0.01 in Rain , Thunderstorm Light Thunderstorms and Rain
7:25 PM 71.6 °F - 69.8 °F 94% 29.99 in 7.0 mi North 10.4 mph - 0.04 in Rain , Thunderstorm Light Thunderstorms and Rain
7:41 PM 71.6 °F - 68.0 °F 88% 29.98 in 6.0 mi North 13.8 mph - 0.08 in Rain Rain
7:53 PM 70.0 °F - 68.0 °F 93% 30.01 in 7.0 mi NNW 9.2 mph - 0.11 in Rain Light Rain
8:53 PM 71.1 °F - 69.1 °F 93% 30.00 in 10.0 mi North 6.9 mph - 0.06 in Rain Light Rain
9:53 PM 72.0 °F - 68.0 °F 87% 30.02 in 10.0 mi Calm Calm - 0.02 in   Partly Cloudy
10:53 PM 72.0 °F - 68.0 °F 87% 30.02 in 10.0 mi North 5.8 mph - N/A   Scattered Clouds
11:53 PM 71.1 °F - 68.0 °F 90% 30.02 in 10.0 mi North 6.9 mph - N/A   Partly Cloudy